Wind from 103 at 0 knots gusting 3

Air temperature 21.7° C
Dewpoint 20.8° C

Last reported at 2014-Apr-25 05:43 UTC.
Time now 2014-Apr-25 06:14 UTC

Location: N 27°36' W 097°14'.
View on Google Maps.

See reports from other nearby stations

Tides Stations Pressure Air Temp Water Temp Dewpoint Dewpoint depression Visibility Wind Speed Wind Dir Waves Ship positions

  
sailing weather and tide predictions

DW4931 Corpus Christi TX US weather

date/time (UTC)wind fromknots sea level pressurealtimeterstation pressurevisibilityair tempwater tempwave heightnotes
2014-Apr-25 05:43 103 0 gusting 3 21.7
2014-Apr-25 05:28 104 1 gusting 4 21.7
2014-Apr-25 05:13 104 0 gusting 3 21.7
2014-Apr-25 04:57 104 0 gusting 4 21.7
2014-Apr-25 04:42 113 2 gusting 6 21.7
2014-Apr-25 04:27 116 3 gusting 5 21.7
2014-Apr-25 04:12 132 1 gusting 6 21.7
2014-Apr-25 03:57 112 4 gusting 7 21.7
2014-Apr-25 03:42 133 3 gusting 6 21.7
2014-Apr-25 03:27 129 2 gusting 7 21.7
2014-Apr-25 03:12 133 4 gusting 7 21.7
2014-Apr-25 02:57 131 5 gusting 9 21.7
2014-Apr-25 02:42 117 4 gusting 8 21.7
2014-Apr-25 02:27 106 6 gusting 8 22.2
2014-Apr-25 02:12 120 4 gusting 8 22.2
2014-Apr-25 01:57 097 4 gusting 6 22.2
2014-Apr-25 01:42 079 3 gusting 5 22.2
2014-Apr-25 01:27 084 3 gusting 7 22.2
2014-Apr-25 01:12 115 5 gusting 7 22.2
2014-Apr-25 00:57 106 4 gusting 9 22.2
2014-Apr-25 00:44 124 4 gusting 7 22.8
2014-Apr-24 23:27 098 5 gusting 8 23.3
2014-Apr-24 23:12 119 6 gusting 10 23.3
2014-Apr-24 22:57 127 8 gusting 15 23.9
2014-Apr-24 22:42 123 6 gusting 11 23.9
2014-Apr-24 22:27 127 6 gusting 12 23.3
2014-Apr-24 22:12 111 7 gusting 10 23.3
2014-Apr-24 21:57 121 6 gusting 13 23.3
2014-Apr-24 21:42 133 7 gusting 13 24.4
2014-Apr-24 21:27 098 8 gusting 15 23.9
2014-Apr-24 21:12 123 8 gusting 13 23.9
2014-Apr-24 20:57 115 8 gusting 15 23.9
2014-Apr-24 20:42 110 11 gusting 17 23.9
2014-Apr-24 20:27 125 9 gusting 16 23.9
2014-Apr-24 20:12 150 8 gusting 18 24.4
2014-Apr-24 19:57 109 8 gusting 17 24.4
2014-Apr-24 19:42 133 9 gusting 15 24.4
2014-Apr-24 19:27 133 11 gusting 17 24.4
2014-Apr-24 19:12 111 11 gusting 18 23.9
2014-Apr-24 18:57 114 10 gusting 16 24.4
2014-Apr-24 18:42 129 12 gusting 18 23.9
2014-Apr-24 18:27 125 9 gusting 17 24.4
2014-Apr-24 18:12 113 11 gusting 19 23.9
2014-Apr-24 17:57 121 9 gusting 16 23.9
2014-Apr-24 17:42 117 7 gusting 17 23.9
2014-Apr-24 17:27 143 10 gusting 19 23.9
2014-Apr-24 16:57 119 10 gusting 16 23.3
2014-Apr-24 16:42 128 7 gusting 13 23.9
2014-Apr-24 16:12 138 7 gusting 13 23.9
2014-Apr-24 15:57 145 8 gusting 15 23.9
2014-Apr-24 15:42 144 9 gusting 15 23.3
2014-Apr-24 15:27 113 6 gusting 13 23.9
2014-Apr-24 15:12 133 7 gusting 12 23.3
2014-Apr-24 14:57 120 9 gusting 13 23.3
2014-Apr-24 14:42 140 6 gusting 13 22.8
2014-Apr-24 14:27 138 5 gusting 13 22.8
2014-Apr-24 14:12 119 6 gusting 9 22.2
2014-Apr-24 13:57 126 7 gusting 13 22.8
2014-Apr-24 13:42 138 7 gusting 11 22.2
2014-Apr-24 13:27 136 7 gusting 15 22.2
2014-Apr-24 13:12 142 6 gusting 11 21.7
2014-Apr-24 12:57 136 7 gusting 10 21.7
2014-Apr-24 12:41 133 6 gusting 10 21.7
2014-Apr-24 12:26 157 4 gusting 10 21.1
2014-Apr-24 12:11 167 6 gusting 11 21.1
2014-Apr-24 11:56 156 7 gusting 13 21.1
2014-Apr-24 11:41 157 8 gusting 13 21.1
2014-Apr-24 11:26 144 6 gusting 15 21.1
2014-Apr-24 11:11 163 7 gusting 15 21.1
2014-Apr-24 10:56 137 8 gusting 17 21.1
2014-Apr-24 10:41 127 8 gusting 19 21.1
2014-Apr-24 10:26 154 11 gusting 19 21.1
2014-Apr-24 10:11 151 14 gusting 24 21.1
2014-Apr-24 09:56 142 13 gusting 21 21.1
2014-Apr-24 09:41 154 12 gusting 20 21.1
2014-Apr-24 09:26 161 12 gusting 19 21.1
2014-Apr-24 09:11 151 11 gusting 19 21.1
2014-Apr-24 08:56 164 12 gusting 18 21.1
2014-Apr-24 08:41 149 13 gusting 21 21.1
2014-Apr-24 08:26 152 14 gusting 20 21.1
2014-Apr-24 08:11 157 14 gusting 22 21.1
2014-Apr-24 07:56 182 13 gusting 20 21.7
2014-Apr-24 07:41 159 13 gusting 25 21.7
2014-Apr-24 07:26 165 11 gusting 18 21.7
2014-Apr-24 07:11 144 8 gusting 16 21.7
2014-Apr-24 06:56 152 9 gusting 17 21.7
2014-Apr-24 06:41 156 6 gusting 10 21.7
2014-Apr-24 06:26 123 6 gusting 15 21.1
2014-Apr-24 06:11 159 10 gusting 20 21.1
2014-Apr-24 05:56 147 13 gusting 20 21.1
2014-Apr-24 05:41 150 13 gusting 19 21.1
2014-Apr-24 05:26 138 13 gusting 20 21.1
2014-Apr-24 05:11 143 11 gusting 17 21.1
2014-Apr-24 04:56 154 9 gusting 15 21.1
2014-Apr-24 04:41 139 8 gusting 13 21.1
2014-Apr-24 04:26 130 7 gusting 16 21.1
2014-Apr-24 04:11 128 9 gusting 15 21.1
2014-Apr-24 03:56 142 9 gusting 16 21.1
2014-Apr-24 03:41 103 7 gusting 13 21.7
2014-Apr-24 03:25 126 7 gusting 13 21.7
2014-Apr-24 03:10 166 9 gusting 15 21.7
2014-Apr-24 02:55 124 9 gusting 15 21.7
2014-Apr-24 02:40 125 8 gusting 17 21.7
2014-Apr-24 02:25 112 10 gusting 17 21.7
2014-Apr-24 02:10 140 8 gusting 17 21.7
2014-Apr-24 01:55 121 9 gusting 19 21.7
2014-Apr-24 01:40 123 9 gusting 16 21.7
2014-Apr-24 01:25 103 10 gusting 18 21.7
2014-Apr-24 01:10 134 8 gusting 15 21.7
2014-Apr-24 00:55 121 9 gusting 17 22.2
2014-Apr-24 00:40 134 10 gusting 17 22.2
2014-Apr-24 00:25 148 8 gusting 16 22.2
2014-Apr-24 00:10 104 10 gusting 16 22.8
2014-Apr-23 23:55 123 9 gusting 18 22.8
2014-Apr-23 23:40 144 11 gusting 19 22.8
2014-Apr-23 23:25 127 11 gusting 18 23.3
2014-Apr-23 23:10 126 10 gusting 15 23.3
2014-Apr-23 22:55 123 10 gusting 17 23.3
2014-Apr-23 22:40 125 10 gusting 19 23.3
2014-Apr-23 22:25 116 9 gusting 18 23.3
2014-Apr-23 21:55 120 11 gusting 19 23.3
2014-Apr-23 21:40 077 8 gusting 16 24.4
2014-Apr-23 21:25 063 7 gusting 16 24.4
2014-Apr-23 21:10 101 8 gusting 16 24.4
2014-Apr-23 20:55 111 9 gusting 17 24.4
2014-Apr-23 20:40 085 7 gusting 13 24.4
2014-Apr-23 20:25 100 9 gusting 16 24.4
2014-Apr-23 20:10 073 8 gusting 13 24.4
2014-Apr-23 19:55 099 9 gusting 17 24.4
2014-Apr-23 19:40 096 6 gusting 16 24.4
2014-Apr-23 19:25 123 7 gusting 15 24.4
2014-Apr-23 19:10 080 7 gusting 15 24.4
2014-Apr-23 18:55 079 7 gusting 17 24.4
2014-Apr-23 18:40 075 8 gusting 16 24.4
2014-Apr-23 18:25 075 7 gusting 15 25.0
2014-Apr-23 18:10 108 6 gusting 15 25.0
2014-Apr-23 17:55 051 6 gusting 13 24.4
2014-Apr-23 17:40 093 6 gusting 12 24.4
2014-Apr-23 17:25 088 8 gusting 13 24.4
2014-Apr-23 17:10 081 6 gusting 12 24.4
2014-Apr-23 16:55 106 6 gusting 15 24.4
2014-Apr-23 16:40 085 6 gusting 13 24.4
2014-Apr-23 16:25 131 8 gusting 13 24.4
2014-Apr-23 16:09 096 7 gusting 13 23.9
2014-Apr-23 15:54 096 8 gusting 13 23.9
2014-Apr-23 15:39 081 7 gusting 13 23.9
2014-Apr-23 15:24 079 6 gusting 12 23.9
2014-Apr-23 15:09 067 6 gusting 11 23.3
2014-Apr-23 14:54 101 5 gusting 12 23.3
2014-Apr-23 14:39 094 6 gusting 11 23.3
2014-Apr-23 14:24 061 5 gusting 10 22.8
2014-Apr-23 14:09 033 5 gusting 9 22.8
2014-Apr-23 13:54 105 3 gusting 9 22.2
2014-Apr-23 13:39 077 5 gusting 7 22.2
2014-Apr-23 13:24 102 4 gusting 7 21.7
2014-Apr-23 13:09 111 3 gusting 6 21.7
2014-Apr-23 12:54 071 1 gusting 6 21.1
2014-Apr-23 12:39 088 1 gusting 6 21.1
2014-Apr-23 12:24 086 3 gusting 6 20.6
2014-Apr-23 12:09 106 20.6
2014-Apr-23 11:54 085 0 gusting 4 20.6
2014-Apr-23 11:39 080 0 gusting 4 20.6
2014-Apr-23 11:24 119 0 gusting 4 20.6
2014-Apr-23 11:09 096 20.6
2014-Apr-23 10:54 106 0 gusting 5 20.6
2014-Apr-23 10:39 102 1 gusting 4 20.6
2014-Apr-23 10:24 104 0 gusting 4 20.6
2014-Apr-23 10:09 117 0 gusting 6 20.6
2014-Apr-23 09:54 081 0 gusting 4 20.6
2014-Apr-23 09:39 077 0 gusting 4 20.6
2014-Apr-23 09:24 097 0 gusting 5 20.6
2014-Apr-23 09:09 098 0 gusting 4 20.6
2014-Apr-23 08:54 092 1 gusting 6 20.6
2014-Apr-23 08:39 079 0 gusting 4 20.6
2014-Apr-23 08:24 102 0 gusting 5 21.1
2014-Apr-23 08:09 086 1 gusting 5 21.1
2014-Apr-23 07:54 099 2 gusting 5 21.1
2014-Apr-23 07:39 127 0 gusting 4 21.1
2014-Apr-23 07:24 113 0 gusting 3 21.1
2014-Apr-23 07:09 091 0 gusting 3 21.1
2014-Apr-23 06:54 061 21.1
2014-Apr-23 06:39 115 21.1
2014-Apr-23 06:24 106 0 gusting 4 21.1
2014-Apr-23 06:09 129 21.1